Location: Enborne
(51.3833°N, 1.3667°W)
Time: 13:57:31
(UTC+00:00)

Cosmos 1844 Rocket - Pass Details

Date: 17 January 2021
Orbit: 826 x 843 km, 71.0° (Epoch: 05 March)

Event Time Altitude Azimuth Distance (km) Brightness Sun altitude
Rises 18:59:44 0° 188° (S) 3,388 6.0 -22.7°
Reaches altitude 10° 19:02:15 10° 182° (S) 2,457 5.2 -23.1°
Enters shadow 19:06:43 43° 138° (SE) 1,169 3.1 -23.8°
